Location: Clermont
(50.2608°N, 4.3172°E)
Time: 08:23:14
(UTC+00:00)

Cosmos 2322 Rocket - Pass Details

Date: 13 August 2020
Orbit: 831 x 852 km, 71.0° (Epoch: 26 September)

Event Time Altitude Azimuth Distance (km) Brightness Sun altitude
Rises 22:24:47 0° 322° (NW) 3,422 6.6 -22.9°
Reaches altitude 10° 22:27:40 10° 309° (NW) 2,485 5.4 -23.1°
Maximum altitude 22:32:04 24° 258° (WSW) 1,709 3.8 -23.4°
Enters shadow 22:34:02 20° 229° (SW) 1,887 3.8 -23.5°
